Location: Mascot Post Office (historical)
(40.2645°N, 99.5462°W)
Time: 02:11:52
(UTC+00:00)

Cosmos 2369 Rocket - Pass Details

Date: 14 July 2020
Orbit: 829 x 852 km, 71.0° (Epoch: 14 August)

Event Time Altitude Azimuth Distance (km) Brightness Sun altitude
Rises 04:23:19 0° 347° (NNW) 3,382 6.6 -20.0°
Reaches altitude 10° 04:26:18 10° 2° (N) 2,447 5.3 -20.3°
Maximum altitude 04:30:39 23° 54° (NE) 1,718 3.8 -20.8°
Enters shadow 04:32:59 18° 87° (E) 1,953 3.8 -21.0°
